RH
2 2 2 2 3 3 5 8 12 17 16 15 22 29 20 22 22 21 19 17 15 23 27 19 18 18 73 58 54 66 77 81 87 84 76 60 68 81 89 97 100 100 100 100
2 1 1 2 3 4 5 6 10 13 14 14 18 19 17 19 24 21 22 21 19 21 29 25 21 18 18 39 50 51 53 60 73 81 89 71 57 58 77 100 100 100 100 100
2 1 1 2 2 4 4 7 9 12 13 14 20 20 19 15 22 24 24 20 17 16 19 24 27 19 18 17 23 18 25 27 41 59 66 76 71 67 72 90 92 100 100 99
2 2 2 2 2 4 6 7 9 11 14 18 20 18 19 17 23 24 24 23 21 19 21 23 28 27 19 18 17 21 30 17 22 29 39 79 86 81 72 88 100 100 100 100
1 1 2 2 2 5 7 8 8 12 15 19 14 18 24 19 21 32 31 28 26 25 24 22 23 32 25 20 18 18 31 21 16 16 16 18 90 100 85 82 100 90 100 100
2 2 2 2 3 4 7 8 10 12 15 14 12 17 16 19 26 28 26 28 26 24 23 21 18 26 28 25 20 22 19 25 26 19 19 18 23 79 89 80 95 99 89 100
2 2 2 2 3 3 8 8 9 11 10 12 13 14 15 19 24 26 29 31 27 23 22 21 19 22 25 26 24 21 24 22 20 20 20 19 18 24 35 74 84 92 92 99
2 2 2 2 3 4 5 10 9 10 11 10 12 14 15 17 26 27 34 31 26 28 27 20 20 24 23 22 24 24 22 23 23 22 21 21 21 20 52 68 89 75 82 69
2 3 3 3 3 4 6 13 10 11 10 11 12 14 16 19 30 25 28 31 33 30 26 22 22 25 21 22 21 22 22 21 21 21 21 22 23 24 20 23 51 81 72 86
3 3 3 3 4 4 9 16 12 10 10 11 13 13 16 17 21 26 29 36 39 35 32 29 26 23 25 24 22 20 21 21 19 20 22 24 26 25 23 24 21 25 34 50
3 4 4 5 6 8 13 16 16 12 12 13 14 13 16 20 23 26 34 45 43 38 31 30 28 23 26 28 21 23 21 19 18 18 20 23 25 26 25 24 22 23 26 33
4 4 5 5 7 14 19 21 19 15 12 14 12 13 17 18 21 23 28 38 39 38 38 37 33 26 26 28 25 24 24 21 20 20 21 20 21 27 28 26 24 24 25 26
5 5 6 8 10 16 17 24 25 22 16 13 12 13 16 17 21 24 28 31 36 42 40 38 34 26 28 27 24 24 24 24 22 21 20 20 19 20 23 25 25 25 24 24
8 6 6 8 10 13 15 20 26 26 21 16 14 14 17 18 20 26 26 30 36 39 38 36 33 31 30 28 26 26 26 24 24 23 22 21 20 20 20 20 23 23 26 24
10 9 7 7 10 14 18 22 27 26 23 19 16 17 21 25 29 28 30 36 38 36 32 24 22 22 21 20 21 22 22 24 25 24 23 23 22 21 20 20 20 20 22 23
10 12 11 9 13 19 20 27 34 31 27 19 16 17 22 27 33 36 40 42 46 43 34 24 20 20 19 18 17 16 16 16 16 17 20 22 23 24 24 23 22 22 22 23
9 14 14 13 10 14 26 33 34 36 33 28 22 19 28 28 34 37 37 37 42 42 35 27 28 26 21 18 18 16 15 15 15 15 15 16 17 20 22 23 22 22 22 22
17 10 15 17 16 15 17 24 33 37 37 34 31 27 25 28 29 29 32 38 43 42 33 28 33 31 26 22 19 18 16 15 15 16 16 17 16 16 16 17 18 20 20 21
16 15 12 19 20 20 20 20 27 29 34 36 35 32 30 30 32 34 45 45 40 50 46 38 33 31 26 24 21 18 16 15 15 15 14 14 14 16 17 18 17 16 16 16
14 13 13 14 21 26 24 26 26 30 34 37 38 40 38 35 32 42 42 38 50 46 42 38 34 31 35 31 28 26 23 22 19 17 16 15 14 14 15 14 15 16 16 16
16 14 13 10 17 25 25 30 33 36 44 35 36 42 43 44 45 51 46 47 47 48 44 44 43 41 37 33 31 34 31 30 29 26 25 23 20 18 15 14 14 14 14 15
12 12 11 12 12 19 26 28 30 37 40 41 49 50 54 56 57 58 56 65 68 65 62 54 51 49 48 43 44 45 42 42 42 42 38 33 28 24 22 19 19 18 18 18
15 12 9 11 11 12 17 26 32 33 39 40 44 46 46 48 52 54 53 47 46 48 53 54 53 52 51 54 55 56 52 54 55 52 50 42 36 35 32 28 26 24 21 19
24 20 13 7 11 11 14 20 27 34 34 33 30 34 41 46 43 48 58 60 58 64 64 64 67 73 74 70 64 58 53 56 52 50 44 42 40 36 29 26 25 21 20 20
47 20 15 12 8 10 12 16 21 32 40 40 33 30 30 34 36 42 50 50 53 54 52 56 57 52 50 52 50 53 51 50 50 49 45 42 39 37 36 36 32 30 32 30
55 30 12 11 7 8 10 12 16 25 34 45 48 45 38 38 38 38 37 38 43 48 51 54 56 60 55 52 47 48 49 46 43 42 39 38 40 44 45 52 50 50 50 50
Wind_Speed
29 34 42 47 60 63 68 76 85 90 95 96 101 104 104 103 101 103 103 99 99 99 98 99 100 100 103 88 92 95 94 93 88 82 75 69 66 65 58 59 60 56 54 54
26 35 42 48 58 64 67 74 82 88 92 93 98 101 101 99 100 100 102 102 100 101 99 98 98 100 98 100 87 90 96 94 93 89 86 83 78 69 62 56 60 55 59 56
25 30 38 48 59 66 66 71 80 86 83 86 95 100 100 95 97 100 100 101 100 95 96 96 96 97 97 97 99 96 92 92 93 92 87 86 84 80 72 60 64 51 51 48
21 25 35 46 55 60 63 71 78 81 83 87 93 92 93 91 93 96 96 99 93 92 93 96 93 96 97 97 97 96 93 91 91 90 86 82 81 81 80 66 54 62 60 56
19 21 30 45 54 63 69 71 72 78 83 88 91 91 92 91 91 93 93 95 95 93 95 96 93 93 98 99 97 94 90 90 91 91 90 87 80 73 81 82 78 74 74 71
14 16 26 40 53 61 69 70 73 80 85 89 82 81 84 83 83 89 91 92 93 92 92 95 89 92 94 96 95 94 94 93 91 92 91 90 91 89 87 82 89 89 81 78
9 13 24 36 48 58 67 72 75 82 84 81 79 80 80 83 85 86 87 88 91 91 89 91 89 89 93 94 92 92 96 98 93 92 92 93 93 92 93 86 88 89 93 91
8 9 17 28 39 52 62 67 72 74 77 76 76 74 76 76 78 82 84 86 85 83 85 90 87 88 91 92 90 92 93 95 96 94 93 92 94 93 98 92 86 85 92 96
9 6 14 21 31 43 52 62 68 73 76 73 72 71 73 71 75 80 83 83 82 85 88 87 86 85 87 89 89 90 92 93 94 96 94 93 93 96 97 92 93 91 91 92
12 5 7 15 26 38 49 62 66 69 70 70 69 69 71 72 76 81 81 82 84 84 85 86 86 84 82 85 87 87 89 91 91 92 94 95 95 97 98 97 99 97 101 97
15 5 6 14 19 31 46 58 59 64 65 66 69 69 70 71 75 77 78 81 84 86 86 84 83 83 78 82 84 83 87 90 90 90 91 93 96 99 100 99 100 98 100 100
16 6 4 14 22 29 44 51 53 57 60 64 66 67 70 72 74 76 78 81 84 83 83 83 84 84 80 80 80 80 83 86 86 87 89 92 93 98 102 103 103 102 102 103
19 9 6 14 25 35 41 46 50 54 59 64 62 64 68 70 70 72 76 78 77 79 81 82 84 83 82 82 81 80 80 84 86 87 88 90 92 96 100 102 104 106 103 103
19 12 6 15 24 31 38 44 49 52 55 58 61 62 65 67 67 68 70 69 71 76 77 79 80 80 80 82 83 83 83 84 84 86 89 91 93 96 97 97 100 103 103 105
18 11 6 14 20 25 34 39 45 49 52 54 58 59 61 62 63 64 65 66 70 72 74 74 73 75 76 76 78 80 83 85 87 88 89 90 92 94 96 97 97 98 101 102
21 11 8 11 17 23 30 37 42 46 49 55 59 59 60 62 64 64 65 67 69 71 72 71 69 71 73 74 74 74 75 77 80 84 90 93 93 94 95 96 96 96 96 98
27 18 10 10 15 24 29 34 40 45 48 52 56 56 57 62 64 66 67 69 70 71 70 68 67 71 73 72 72 73 73 72 73 75 77 81 85 90 95 97 98 98 98 99
33 23 15 12 13 21 25 32 39 43 47 50 53 55 58 62 64 66 65 66 66 68 69 67 68 69 71 71 71 72 72 72 72 72 72 73 75 78 81 85 90 95 97 99
42 24 18 14 15 18 27 28 36 43 46 48 51 53 57 61 64 62 64 66 66 67 67 67 68 69 69 70 71 72 73 72 71 71 72 71 71 72 73 76 78 80 83 86
50 29 17 17 16 20 24 29 32 37 42 44 48 51 54 56 58 62 66 67 66 68 69 69 69 68 69 69 70 70 70 68 69 69 69 69 68 69 69 71 72 74 77 78
52 45 25 16 18 23 25 29 31 34 41 40 42 45 48 51 53 59 61 63 63 66 67 67 67 68 69 70 68 68 68 67 68 68 69 68 68 68 68 68 68 69 71 73
55 47 33 21 17 24 27 29 32 35 38 39 41 44 46 48 50 53 55 57 59 62 63 63 65 66 67 67 65 65 64 63 61 63 65 66 68 69 69 67 67 66 66 66
68 54 39 24 21 23 25 27 30 34 39 41 43 44 45 47 49 51 54 56 57 58 57 58 59 61 61 60 59 58 55 53 55 58 60 61 63 64 64 63 63 63 62 62
73 60 49 33 23 24 25 28 30 32 35 37 40 44 46 46 45 46 50 52 50 49 49 49 48 49 50 51 52 52 51 52 53 55 55 54 54 57 57 55 55 56 55 54
79 61 48 40 28 24 27 28 32 33 35 35 37 38 40 43 45 46 47 49 49 49 48 47 47 47 46 47 47 48 49 50 51 51 51 50 51 51 49 49 48 47 47 47
91 80 58 41 31 24 26 29 33 37 37 38 38 38 39 39 40 41 43 43 44 44 44 43 43 44 45 46 47 47 48 49 50 50 50 50 48 48 47 46 45 44 43 43
Wind_Direction
253 242 235 223 216 214 210 207 210 213 217 218 217 223 223 223 224 225 225 225 226 227 228 227 228 230 232 233 236 235 236 238 241 242 241 239 240 242 247 250 253 258 261 260
255 239 231 219 215 214 211 208 210 213 215 215 219 219 223 221 222 224 225 226 225 226 227 228 229 230 231 235 236 237 238 238 241 242 244 246 244 244 245 248 252 256 261 261
261 247 232 220 213 210 209 211 209 211 214 216 217 219 222 221 221 223 225 227 227 226 228 230 230 232 232 234 236 239 238 240 241 242 243 246 247 244 243 244 245 247 251 254
268 240 226 218 214 211 207 210 209 209 211 214 218 220 222 223 222 224 225 228 228 229 229 230 230 233 233 234 235 237 241 239 241 241 242 243 247 246 243 242 240 244 245 253
266 234 222 214 211 206 206 209 210 208 210 213 215 217 221 222 220 223 225 227 227 227 229 230 229 232 234 233 235 238 238 242 242 243 243 241 243 245 243 241 243 244 246 247
281 237 219 214 211 207 206 206 208 207 211 213 216 218 221 224 223 225 226 227 229 230 230 232 230 232 235 237 236 235 240 239 240 242 244 244 241 242 243 244 243 244 245 249
306 235 216 215 211 208 205 206 208 210 212 213 215 217 220 220 222 223 225 227 229 230 232 234 232 233 235 236 238 237 236 240 241 242 243 245 245 244 245 243 245 246 245 246
324 247 215 217 214 209 208 206 209 212 215 214 214 217 222 219 221 224 225 228 230 232 233 234 235 234 235 238 237 239 238 238 241 241 243 244 246 246 245 241 243 242 244 244
351 259 210 211 207 207 205 205 210 211 215 216 215 215 219 219 221 224 225 228 230 232 233 235 235 237 236 238 238 238 240 240 239 241 242 244 245 248 250 249 243 246 247 247
10 315 211 204 205 207 201 208 210 211 216 215 216 215 218 219 220 223 226 227 230 232 235 236 238 236 239 240 240 240 241 242 243 243 242 242 243 246 248 248 249 247 249 250
17 2 193 185 183 197 203 210 210 212 213 215 216 215 217 217 221 225 226 228 230 232 234 236 239 239 238 241 241 242 243 244 244 244 244 244 244 245 247 249 250 249 249 251
23 27 167 183 185 198 206 213 211 212 213 215 217 216 217 218 220 223 226 229 232 234 236 238 239 240 240 241 242 242 243 244 245 244 245 244 244 245 246 247 250 249 248 249
25 25 159 177 194 202 208 211 210 211 212 217 218 217 218 221 220 224 227 231 234 237 239 241 242 243 243 244 244 244 244 245 245 245 245 246 246 246 247 248 250 252 253 253
29 23 182 189 202 206 210 212 211 211 213 215 218 218 220 222 222 225 229 232 235 238 241 242 243 245 246 246 246 246 245 245 246 247 247 247 247 249 251 251 252 253 255 257
17 17 257 215 208 208 212 214 214 214 214 215 218 217 220 223 226 227 229 232 235 238 241 243 245 246 247 248 248 248 247 246 247 248 249 249 250 251 252 254 255 255 255 257
3 11 319 259 222 208 211 215 215 216 217 217 218 215 219 222 224 226 228 232 236 239 241 244 246 249 250 250 250 250 250 249 249 249 249 250 251 251 253 254 255 256 257 257
357 347 336 279 263 228 218 215 217 219 220 219 221 221 221 224 225 228 229 232 236 240 243 245 247 249 251 252 253 253 253 253 254 254 252 252 252 253 254 255 256 257 257 258
359 341 323 299 267 252 241 227 223 223 224 225 225 224 225 226 228 231 233 238 240 243 246 247 249 251 253 254 255 256 256 255 255 256 256 256 255 254 255 256 257 258 259 260
1 346 319 291 271 256 250 244 236 231 229 229 229 229 227 228 232 234 235 237 238 241 245 247 248 251 253 255 256 257 258 260 260 260 259 258 258 258 257 257 258 258 258 259
2 351 323 290 264 254 248 240 240 239 236 236 235 234 234 233 234 235 237 238 240 243 245 248 251 254 254 255 256 258 260 262 264 264 264 264 264 262 261 260 260 259 259 259
0 356 334 293 267 253 250 246 242 242 240 240 240 239 238 239 236 237 240 243 244 246 247 249 251 253 255 257 258 260 261 261 263 264 265 266 266 266 264 263 263 262 261 261
1 359 345 315 275 255 246 244 242 242 245 245 243 243 242 243 243 243 243 242 244 247 248 249 251 254 256 259 260 262 264 263 264 263 262 262 263 264 265 264 264 263 262 262
2 355 350 331 289 269 257 249 245 241 239 244 246 245 245 244 245 245 246 246 246 249 250 251 253 255 259 260 261 261 260 261 260 260 260 261 262 263 264 265 264 264 264 263
7 2 356 342 312 281 265 255 249 247 246 241 241 243 245 246 248 249 250 252 254 255 255 256 257 258 257 257 258 259 259 258 258 258 259 260 260 262 264 264 265 265 265 265
2 352 355 349 327 298 273 257 250 247 250 250 246 242 241 242 245 245 248 249 251 253 253 254 255 255 256 257 257 258 258 257 257 258 259 259 260 261 262 264 265 263 262 263
1 357 349 348 334 307 281 266 253 248 246 247 247 248 246 246 246 247 247 247 249 250 249 250 251 252 253 254 255 255 255 256 256 259 260 260 261 261 260 263 264 265 264 262